Weather History for Athens, GA

Change the Weather History Date:

Saturday, January 26, 2013

  Actual Average Record
Temperature  
Mean Temperature 48 °F 44 °F  
Max Temperature 62 °F 55 °F 77 °F (1950)
Min Temperature 33 °F 33 °F 3 °F (1940)
Degree Days  
Heating Degree Days 17 21  
Month to date heating degree days 404 565  
Since 1 July heating degree days 1389 1655  
Moisture  
Dew Point 28 °F    
Average Humidity 54    
Maximum Humidity 92    
Minimum Humidity 16    
Precipitation  
Precipitation T in 0.14 in 1.55 in (1859)
Month to date precipitation 3.67 3.33  
Year to date precipitation 3.67 3.33  
Snow  
Snow 0.00 in 0.00 in 0.00 in (2002)
Month to date snowfall 0.0 1.2  
Since 1 July snowfall 0.0 1.3  
Snow Depth -    
Sea Level Pressure  
Sea Level Pressure 30.19 in    
Wind  
Wind Speed 5 mph (WNW)    
Max Wind Speed 12 mph    
Max Gust Speed 17 mph    
Visibility 8 miles    
Events Rain    
T = Trace of Precipitation, MM = Missing Value Source: NWS Daily Summary

Daily Weather History Graph

Daily Weather History Graph

Search for Another Location

Airport:

Trip Planner

Search our weather history database for the weather conditions in past years. The results will help you decide how hot, cold, wet, or windy it might be!

Date:

Astronomy

Jan. 26, 2013 Rise Set
Actual Time 7:33 AM EST 5:58 PM EST
Civil Twilight 7:07 AM EST 6:24 PM EST
Nautical Twilight 6:37 AM EST 6:55 PM EST
Astronomical Twilight 6:07 AM EST 7:24 PM EST
Moon 5:49 PM EST (1/26) 6:52 AM EST (1/26)
Length of Visible Light 11h 17m
Length of Day
10h 24m
Full, 100% of the Moon is Illuminated
Jan 26
Full
Jan 26
Full
Feb 3
Last Quarter
Feb 10
New
Feb 17
First Quarter

Hourly Weather History & Observations

Time (EST) Temp. Windchill Dew Point Humidity Pressure Visibility Wind Dir Wind Speed Gust Speed Precip Events Conditions
12:51 AM 35.6 °F 31.7 °F 26.6 °F 70% 30.14 in 6.0 mi WSW 4.6 mph - N/A Rain Light Rain
1:30 AM 35.6 °F 32.8 °F 28.4 °F 75% 30.12 in 8.0 mi SW 3.5 mph - 0.00 in   Overcast
1:41 AM 35.6 °F 31.7 °F 28.4 °F 75% 30.12 in 8.0 mi WSW 4.6 mph - 0.00 in   Overcast
1:51 AM 35.1 °F 30.1 °F 28.0 °F 76% 30.15 in 8.0 mi WSW 5.8 mph - 0.00 in   Overcast
2:36 AM 37.4 °F 34.9 °F 28.4 °F 70% 30.13 in 8.0 mi WNW 3.5 mph - N/A   Overcast
2:51 AM 37.0 °F - 28.9 °F 73% 30.15 in 8.0 mi Calm Calm - N/A   Overcast
3:02 AM 35.6 °F 32.8 °F 28.4 °F 75% 30.13 in 8.0 mi West 3.5 mph - N/A   Mostly Cloudy
3:51 AM 35.1 °F 31.0 °F 28.9 °F 78% 30.14 in 7.0 mi West 4.6 mph - N/A   Clear
4:51 AM 36.0 °F 32.1 °F 34.0 °F 93% 30.14 in 4.0 mi WNW 4.6 mph - N/A   Scattered Clouds
5:10 AM 35.6 °F 31.7 °F 33.8 °F 93% 30.12 in 3.0 mi WNW 4.6 mph - N/A   Mostly Cloudy
5:51 AM 37.0 °F 32.4 °F 35.1 °F 93% 30.15 in 3.0 mi West 5.8 mph - N/A   Overcast
6:51 AM 37.0 °F 32.4 °F 36.0 °F 96% 30.17 in 3.0 mi NW 5.8 mph - N/A   Mostly Cloudy
7:04 AM 37.4 °F 33.8 °F 35.6 °F 93% 30.15 in 3.0 mi WNW 4.6 mph - N/A   Scattered Clouds
7:51 AM 37.0 °F 34.5 °F 36.0 °F 96% 30.19 in 2.5 mi WNW 3.5 mph - N/A   Clear
8:11 AM 37.4 °F 34.9 °F 35.6 °F 93% 30.17 in 3.0 mi WNW 3.5 mph - N/A   Clear
8:51 AM 41.0 °F 38.0 °F 37.0 °F 86% 30.21 in 5.0 mi West 4.6 mph - N/A   Clear
9:51 AM 43.0 °F 39.5 °F 35.1 °F 74% 30.24 in 8.0 mi West 5.8 mph - N/A   Clear
10:51 AM 45.0 °F 41.2 °F 34.0 °F 65% 30.25 in 9.0 mi WNW 6.9 mph - N/A   Clear
11:51 AM 48.9 °F - 32.0 °F 52% 30.24 in 10.0 mi WNW 5.8 mph - N/A   Clear
12:51 PM 55.9 °F - 28.0 °F 34% 30.22 in 10.0 mi West 9.2 mph - N/A   Clear
1:51 PM 57.9 °F - 25.0 °F 28% 30.20 in 10.0 mi Variable 4.6 mph - N/A   Clear
2:51 PM 60.1 °F - 19.0 °F 20% 30.19 in 10.0 mi Variable 5.8 mph - N/A   Clear
3:51 PM 61.0 °F - 14.0 °F 16% 30.19 in 10.0 mi NW 6.9 mph 17.3 mph N/A   Clear
4:51 PM 60.1 °F - 16.0 °F 18% 30.20 in 10.0 mi West 8.1 mph - N/A   Clear
5:51 PM 53.1 °F - 18.0 °F 25% 30.21 in 10.0 mi WNW 4.6 mph - N/A   Clear
6:51 PM 51.1 °F - 17.1 °F 26% 30.23 in 10.0 mi Calm Calm - N/A   Clear
7:51 PM 48.0 °F - 21.0 °F 34% 30.25 in 10.0 mi WNW 5.8 mph - N/A   Clear
8:51 PM 45.0 °F - 24.1 °F 44% 30.25 in 10.0 mi Calm Calm - N/A   Clear
9:51 PM 45.0 °F - 28.0 °F 52% 30.28 in 10.0 mi Calm Calm - N/A   Clear
10:51 PM 41.0 °F - 28.0 °F 60% 30.29 in 10.0 mi Calm Calm - N/A   Clear
11:51 PM 34.0 °F 29.8 °F 27.0 °F 75% 30.30 in 10.0 mi East 4.6 mph - N/A   Clear